User: anonymous   Login
Location: ??
(35.5052°N, 139.7262°E)
Time: 17:03:41
(UTC+00:00)
Language:

Exosat Rocket - Orbit

View from above orbital plane
View from above orbital plane
View from above satellite
View from above satellite

Ground track
Ground track

The orbit data is extracted from the following two-line orbital elements,

1 14096U 83051B   21259.44187555 -.00000036  00000-0 -20687-4 0  9993
2 14096  72.3035 141.9564 1095104 339.5066  16.5042 12.09761962691607
Epoch (UTC): 16 September 2021 10:36:18
Eccentricity: 0.1095104
inclination: 72.3035°
perigee height: 759 km
apogee height: 2515 km
right ascension of ascending node: 141.9564°
argument of perigee: 339.5066°
revolutions per day: 12.09761962
mean anomaly at epoch: 16.5042°
orbit number at epoch: 69160

The dashed part of the orbit path shows where the satellite is in the earth's shadow,  

DLR